Location: Barry
(44.3167°N, 4.7667°E)
Time: 02:03:35
(UTC+00:00)

Daily predictions for brighter satellites

Satellite Brightness Start Highest point End
(mag) Time Altitude Azimuth Time Altitude Azimuth Time Altitude Azimuth
ADEOS II 4.5 02:16:21 10° N 02:17:29 17° N 02:17:29 17° N
USA 234 4.0 02:19:25 10° ESE 02:24:09 47° E 02:24:09 47° E
Lacrosse 5 3.8 02:40:09 25° ENE 02:40:09 25° ENE 02:42:40 10° E
Cosmos 2082 Rocket 4.3 02:42:36 18° N 02:42:36 18° N 02:44:28 10° N
Cosmos 2333 Rocket 4.2 02:40:14 10° N 02:45:03 26° NE 02:49:50 10° ESE
Cosmos 2219 Rocket 4.0 02:55:14 10° N 03:00:05 28° NE 03:04:56 10° ESE
CZ-2C R/B 3.7 02:58:10 10° NNE 03:02:02 34° E 03:02:02 34° E
USA 238 DEB 4.2 03:07:05 10° NNW 03:14:17 64° NE 03:21:46 10° SE
USA 238 4.2 03:07:11 10° NNW 03:14:23 64° NE 03:21:53 10° SE
COSMOS 2428 4.4 03:11:26 10° N 03:16:30 32° NE 03:21:35 10° ESE
ATLAS 5 CENTAUR R/B 3.7 03:19:17 17° ESE 03:19:41 17° ESE 03:22:24 10° ENE
S3M 3.8 03:21:13 89° WSW 03:21:15 89° W 03:27:29 10° N
ARIANE 5 R/B 3.7 03:20:34 10° N 03:23:22 31° NNW 03:23:22 31° NNW
Cosmos 1745 Rocket 3.8 03:20:01 10° N 03:26:20 80° W 03:26:32 79° WSW
USA 267 3.6 03:28:32 10° NE 03:34:46 49° NNW 03:35:57 44° WNW
Cosmos 2322 4.1 03:31:42 10° NNW 03:37:22 63° ENE 03:42:58 10° SE
Cosmos 1709 Rocket 4.1 03:31:42 10° N 03:38:07 76° E 03:44:29 10° SSE
H-2A R/B 3.9 03:37:50 10° SE 03:41:30 30° ENE 03:45:08 10° N
NOSS 3-2 (A) 4.0 03:35:28 10° NW 03:43:05 80° SW 03:51:41 10° SSE
Spot 4 Rocket 4.4 03:42:12 10° N 03:46:28 48° NW 03:46:28 48° NW
COSMOS 2487 4.1 03:50:12 28° NNE 03:50:12 28° NNE 03:51:58 10° NNE
Cosmos 1833 4.1 03:48:29 64° W 03:48:53 66° WNW 03:54:30 10° NNE
Cosmos 2344 3.5 03:46:42 48° WSW 03:48:54 69° NW 03:56:51 10° NE
CENTAUR R/B 3.2 03:45:58 10° NW 03:54:11 87° NE 04:03:08 10° SE
Cosmos 2251 Rocket 3.4 03:53:53 59° SW 03:54:54 79° WNW 04:00:19 10° NNE
Cosmos 614 Rocket 4.1 03:54:14 35° S 03:56:28 73° ESE 04:01:42 10° NNE
OAO 3 Rocket 4.5 04:00:08 27° S 04:00:11 27° S 04:04:16 10° ESE
Cosmos 2360 Rocket 3.8 04:04:24 19° S 04:04:24 19° S 04:06:00 10° S
ISS -2.5 04:00:41 37° NNE 04:00:42 37° NNE 04:03:51 10° E
Cosmos 1933 4.1 03:58:06 18° SSE 04:00:48 51° E 04:04:44 10° NNE
H-2A R/B 4.4 03:52:49 29° WSW 04:01:37 44° SSW 04:07:49 10° ESE
IDEFIX/ARIANE 42P 4.3 03:58:22 10° NNW 04:00:31 18° NW 04:00:31 18° NW
Meteor 2-17 Rocket 4.3 03:57:24 10° N 04:03:29 83° W 04:09:33 10° S
ALOS 2.4 03:59:08 10° NNE 04:03:49 74° ESE 04:07:02 20° S
PAYLOAD A 4.2 03:58:47 10° N 04:04:00 57° WNW 04:05:03 48° WSW
CZ-2C R/B 4.3 04:02:24 10° N 04:04:14 24° NNW 04:04:14 24° NNW
Cosmos 2237 Rocket 4.0 04:02:53 10° N 04:07:53 30° NE 04:12:51 10° ESE
Cosmos 2333 4.1 04:02:42 10° NNW 04:08:28 68° WSW 04:14:11 10° SSE
USA 234 3.4 04:02:41 10° SSE 04:08:55 48° SW 04:11:34 32° W
Meteor 1-31 Rocket 4.5 04:07:59 10° NNE 04:11:30 33° E 04:14:58 10° SSE
Cosmos 407 Rocket 4.1 04:06:31 10° S 04:11:34 56° ESE 04:16:35 10° NNE
CZ-4C R/B 2.1 04:10:13 31° SSW 04:12:34 74° SE 04:18:22 10° NE
Cosmos 883 Rocket 4.5 04:11:11 30° SW 04:14:04 56° WNW 04:20:06 10° N
USA 276 2.7 04:16:02 47° N 04:16:02 47° N 04:18:55 10° ENE
PSLV R/B 3.6 04:12:07 10° N 04:16:25 58° WNW 04:17:21 46° WSW
NOSS 3-4 (A) 3.5 04:16:30 20° SSW 04:20:35 75° ESE 04:26:49 10° NE
NOSS 3-4 (C) 3.5 04:16:34 20° SSW 04:20:42 74° ESE 04:26:55 10° NE
Lacrosse 5 1.9 04:19:24 36° WNW 04:21:09 55° SW 04:26:04 10° SSE
Cosmos 1328 Rocket 4.5 04:19:39 10° SSE 04:23:47 48° E 04:27:57 10° NNE
Cosmos 192 4.4 04:19:19 10° NNW 04:24:18 84° ENE 04:29:15 10° SSE
NOSS 3-2 (C) 4.0 04:17:30 10° NW 04:25:08 72° WSW 04:33:42 10° SSE
Cosmos 2227 Rocket 4.5 04:21:50 10° SSE 04:26:16 24° ESE 04:30:44 10° NE
GPS 2-04 Rocket1 4.1 04:26:32 21° S 04:26:54 21° S 04:29:49 10° SE
Cosmos 2333 Rocket 2.2 04:24:03 10° NNW 04:29:42 57° WSW 04:35:19 10° S
Cosmos 1484 Rocket 2.6 04:29:42 10° N 04:33:22 62° WNW 04:35:27 24° SSW
Cosmos 1437 Rocket 3.1 04:29:21 10° S 04:33:23 69° E 04:37:23 10° NNE
Cosmos 1805 Rocket 4.0 04:30:02 10° NNW 04:34:10 38° W 04:38:17 10° SSW
Landsat 5 3.6 04:32:09 10° S 04:35:46 40° W 04:39:28 10° NNW
ATLAS 2AS CENTAUR R/B 3.3 04:27:57 10° SSW 04:35:46 69° ESE 04:43:32 10° NE
SJ-6F 4.5 04:32:48 10° N 04:36:55 59° WNW 04:40:19 15° SSW
Cosmos 2315 Rocket 4.3 04:34:41 15° SW 04:39:33 44° WNW 04:45:27 10° N
CZ-4B R/B 2.6 04:37:04 10° SE 04:39:58 40° ENE 04:42:52 10° N
CZ-2C R/B 3.3 04:36:40 10° N 04:40:35 26° WNW 04:41:25 25° W
COSMO-SKYMED 1 3.1 04:36:37 10° SSE 04:40:53 63° ENE 04:45:12 10° N
Cosmos 2297 Rocket 3.6 04:36:01 10° S 04:41:14 40° ESE 04:46:29 10° NE
Cosmos 1782 2.8 04:39:24 10° S 04:43:20 82° E 04:47:19 10° N
Cosmos 2219 Rocket 2.3 04:38:50 10° NW 04:44:18 50° WSW 04:49:45 10° S
Cosmos 1606 4.2 04:47:57 20° WNW 04:47:57 20° WNW 04:50:27 10° NNW
CBERS 1 LM4 rocket 4.4 04:43:47 10° N 04:48:28 55° WNW 04:53:03 10° SSW
Cosmos 1140 Rocket 3.4 04:43:44 10° SSW 04:48:56 81° WNW 04:54:09 10° NNE
Sich 1 3.7 04:46:49 10° NNW 04:50:47 33° W 04:54:42 10° SSW
Meteor 1-26 Rocket 4.2 04:46:19 10° SSW 04:52:03 81° W 04:58:00 10° N
Cosmos 1980 4.1 04:47:24 10° NNW 04:53:05 67° ENE 04:58:42 10° SE
Cosmos 1500 4.0 04:49:26 10° N 04:53:10 54° E 04:56:54 10° SSE
ERS-2 4.4 04:51:20 10° SE 04:54:26 27° ENE 04:57:33 10° N
METEOR-M 4.2 04:49:17 10° N 04:54:28 53° WNW 04:59:38 10° SW
Cosmos 1666 Rocket 3.8 04:53:50 10° NNW 04:58:01 45° W 05:02:12 10° SSW
Cosmos 2074 Rocket 3.9 04:52:44 10° NNW 04:58:55 69° W 05:05:04 10° S
MOS 1 Rocket 3.1 04:55:39 10° S 05:00:01 75° WSW 05:04:41 10° NNW
SeaSat 1 2.4 04:55:23 10° SSE 05:00:19 83° WSW 05:05:17 10° NNW
Cosmos 1023 Rocket 4.5 04:55:33 10° SSW 05:00:42 62° WNW 05:05:50 10° NNE
COSMOS 2428 3.0 04:55:32 10° NW 05:00:56 44° WSW 05:06:18 10° S
BREEZE M DEB (TANK) 2.9 04:59:34 15° WNW 05:01:54 66° NNE 05:09:45 10° ESE
ATLAS 5 CENTAUR R/B 1.7 05:00:50 17° WSW 05:03:44 48° NW 05:08:05 10° NNE
BREEZE-M DEB (TANK) 3.5 05:00:37 14° WNW 05:03:47 33° N 05:06:04 10° ENE
SKYMED 3 4.5 05:00:37 10° S 05:04:56 72° WSW 05:09:18 10° NNW
USA 238 4.5 04:58:39 10° NW 05:05:02 33° WSW 05:11:35 10° S
YAOGAN 6 4.0 05:02:46 10° NNE 05:06:07 41° E 05:09:25 10° S
Cosmos 2154 Rocket 4.0 05:00:09 10° N 05:06:25 89° E 05:12:42 10° S
ATLAS 3B R/B 3.3 05:02:11 10° NNW 05:09:07 62° NE 05:16:20 10° SE
CZ-4B R/B 3.9 05:05:37 10° N 05:09:09 47° WNW 05:12:38 10° SSW
ADEOS 3.6 05:04:39 10° N 05:09:46 58° WNW 05:14:53 10° SSW
Cosmos 1602 4.2 05:08:02 10° NNW 05:11:43 39° W 05:15:22 10° SSW
USA 267 4.5 05:11:23 10° NE 05:16:53 30° N 05:22:22 10° WNW
H-2A R/B 3.0 05:13:58 10° SSW 05:17:27 25° W 05:20:56 10° NW
Cosmos 1151 Rocket 3.6 05:15:14 10° SW 05:19:10 34° WNW 05:23:06 10° N
Cosmos 2219 3.4 05:15:25 10° SSW 05:21:04 80° ESE 05:26:44 10° NNE
NOSS 0 Rocket 4.1 05:18:54 10° NW 05:24:52 53° WSW 05:30:50 10° S
Cosmos 1763 Rocket 4.3 05:20:25 10° NNW 05:25:34 56° ENE 05:30:37 10° SE
Cosmos 2184 Rocket 4.3 05:19:47 10° NNW 05:25:46 45° W 05:31:45 10° SSW
Meteor 2-12 Rocket 4.4 05:20:02 10° NNW 05:26:11 74° W 05:32:18 10° S
Cosmos 1633 Rocket 4.0 05:25:18 10° NNW 05:28:58 26° W 05:32:36 10° SW
SKYMED 2 4.0 05:24:56 10° SSW 05:29:00 39° W 05:33:06 10° NNW
CZ-2C R/B 4.1 05:29:43 10° S 05:31:12 11° SSE 05:32:40 10° SE
Cosmos 1242 Rocket 2.4 05:30:51 10° SSW 05:34:16 62° WNW 05:37:44 10° N
H-2A R/B 2.8 05:30:30 10° N 05:34:20 57° WNW 05:38:08 10° SSW
ISS -3.2 05:34:21 10° WNW 05:37:34 43° SW 05:40:46 10° SE
Cosmos 468 Rocket 4.3 05:32:47 10° NNW 05:38:00 76° ENE 05:43:08 10° SSE
Milstar 3 Cent rocket 4.1 05:37:34 10° SSW 05:38:27 10° S 05:39:20 10° S
Cosmos 1812 2.9 05:35:42 10° SSW 05:39:26 51° WNW 05:43:12 10° N
ALOS 4.0 05:38:12 10° NNW 05:40:38 14° WNW 05:43:03 10° W
CZ-2C R/B 3.2 05:35:28 10° SSE 05:41:02 69° ENE 05:46:37 10° N
CENTAUR R/B 4.1 05:37:44 10° WNW 05:44:21 26° WSW 05:51:16 10° SSW
